Weather History for Grant County, OR

Change the Weather History Date:

Thursday, June 13, 2013

  Actual Average (KBNO) Record (KBNO)
Temperature  
Mean Temperature 50 °F 58 °F  
Max Temperature 58 °F 74 °F 92 °F (1987)
Min Temperature 42 °F 41 °F 26 °F (1990)
Degree Days  
Heating Degree Days 15 8  
Month to date heating degree days 119  
Since 1 June heating degree days 119  
Since 1 July heating degree days 7589  
Cooling Degree Days 0 0  
Month to date cooling degree days 0  
Year to date cooling degree days 3  
Since 1 June cooling degree days 0  
Moisture  
Dew Point 36 °F    
Average Humidity 60    
Maximum Humidity 72    
Minimum Humidity 37    
Precipitation  
Precipitation 0.10 in 0.03 in 0.33 in (1969)
Month to date precipitation 0.42  
Year to date precipitation 5.88  
Sea Level Pressure  
Sea Level Pressure 30.15 in    
Wind  
Wind Speed 8 mph (West)    
Max Wind Speed 24 mph    
Max Gust Speed 32 mph    
Visibility 10 miles    
Events Thunderstorm    
T = Trace of Precipitation, MM = Missing Value Source: NWS Daily Summary

Daily Weather History Graph

Daily Weather History Graph

Search for Another Location

Airport:

Trip Planner

Search our weather history database for the weather conditions in past years. The results will help you decide how hot, cold, wet, or windy it might be!

Date:

Astronomy

Jun. 13, 2013 Rise Set
Actual Time 5:10 AM PDT 8:41 PM PDT
Civil Twilight 4:34 AM PDT 9:18 PM PDT
Nautical Twilight 3:46 AM PDT 10:06 PM PDT
Astronomical Twilight 2:43 AM PDT 11:08 PM PDT
Moon 10:01 AM PDT (6/13) 11:39 PM PDT (6/13)
Length of Visible Light 16h 43m
Length of Day
15h 30m
Waxing Crescent, 22% of the Moon is Illuminated
Jun 13
Waxing Crescent
Jun 16
First Quarter
Jun 23
Full
Jun 29
Last Quarter
Jul 8
New

Hourly Weather History & Observations

Time (PDT) Temp. Windchill Dew Point Humidity Pressure Visibility Wind Dir Wind Speed Gust Speed Precip Events Conditions
12:15 AM 50.5 °F - 34.9 °F 55% 30.09 in 10.0 mi NW 11.5 mph - N/A   Clear
12:35 AM 49.5 °F - 35.1 °F 58% 30.09 in 10.0 mi NW 5.8 mph - N/A   Clear
12:55 AM 49.3 °F - 35.2 °F 58% 30.09 in 10.0 mi NW 9.2 mph - N/A   Clear
1:15 AM 48.0 °F - 35.1 °F 61% 30.10 in 10.0 mi WNW 6.9 mph - N/A   Clear
1:35 AM 46.6 °F - 35.1 °F 64% 30.10 in 10.0 mi NW 3.5 mph - N/A   Clear
1:55 AM 45.9 °F 42.3 °F 34.7 °F 65% 30.10 in 10.0 mi WNW 6.9 mph - N/A   Clear
2:15 AM 45.3 °F 41.1 °F 34.9 °F 67% 30.10 in 10.0 mi West 8.1 mph - N/A   Clear
2:35 AM 46.6 °F - 35.4 °F 65% 30.10 in 10.0 mi West 5.8 mph - N/A   Mostly Cloudy
2:55 AM 45.5 °F 44.2 °F 34.7 °F 66% 30.10 in 10.0 mi West 3.5 mph - N/A   Scattered Clouds
3:15 AM 44.1 °F 41.5 °F 34.0 °F 68% 30.11 in 10.0 mi West 4.6 mph - N/A   Clear
3:35 AM 44.4 °F 42.9 °F 33.8 °F 66% 30.11 in 10.0 mi WSW 3.5 mph - N/A   Scattered Clouds
3:55 AM 44.8 °F 43.3 °F 34.0 °F 66% 30.11 in 10.0 mi West 3.5 mph - N/A   Scattered Clouds
4:15 AM 44.1 °F 42.5 °F 34.7 °F 70% 30.11 in 10.0 mi WNW 3.5 mph - N/A   Clear
4:35 AM 43.0 °F 38.8 °F 34.3 °F 72% 30.11 in 10.0 mi West 6.9 mph - N/A   Clear
4:55 AM 42.4 °F 40.7 °F 34.2 °F 72% 30.12 in 10.0 mi West 3.5 mph - N/A   Scattered Clouds
5:15 AM 44.1 °F - 34.7 °F 70% 30.12 in 10.0 mi Calm Calm - N/A   Mostly Cloudy
5:35 AM 44.6 °F 43.1 °F 34.9 °F 69% 30.12 in 10.0 mi WSW 3.5 mph - N/A   Overcast
5:55 AM 44.8 °F 41.6 °F 35.2 °F 69% 30.12 in 10.0 mi SW 5.8 mph - N/A   Overcast
6:15 AM 45.0 °F 42.6 °F 35.4 °F 69% 30.12 in 10.0 mi WSW 4.6 mph - N/A   Overcast
6:35 AM 45.5 °F 42.5 °F 36.0 °F 69% 30.12 in 10.0 mi WSW 5.8 mph - N/A   Overcast
6:55 AM 45.5 °F 43.2 °F 35.8 °F 69% 30.12 in 10.0 mi West 4.6 mph - N/A   Overcast
7:15 AM 46.2 °F 44.1 °F 36.1 °F 68% 30.12 in 10.0 mi West 4.6 mph - N/A   Unknown
7:35 AM 46.8 °F - 36.1 °F 67% 30.12 in 10.0 mi West 8.1 mph - N/A   Unknown
7:55 AM 48.0 °F - 36.7 °F 65% 30.13 in 10.0 mi West 5.8 mph - N/A   Unknown
8:15 AM 48.2 °F - 36.7 °F 64% 30.14 in 10.0 mi West 6.9 mph - N/A   Overcast
8:35 AM 48.4 °F - 36.9 °F 64% 30.14 in 10.0 mi West 9.2 mph - N/A   Overcast
8:55 AM 48.9 °F - 37.2 °F 64% 30.14 in 10.0 mi West 6.9 mph - N/A   Overcast
9:15 AM - - - N/A% - - North - - N/A   Unknown
9:35 AM - - - N/A% - - North - - N/A   Unknown
9:55 AM - - - N/A% - - North - - N/A   Unknown
10:15 AM - - - N/A% - - North - - N/A   Unknown
10:35 AM 51.8 °F - 34.9 °F 53% 30.13 in 10.0 mi NNW 4.6 mph - N/A   Overcast
10:55 AM 51.4 °F - 35.1 °F 54% 30.13 in 10.0 mi WSW 4.6 mph - N/A   Overcast
11:15 AM - - - N/A% - - North - - N/A   Unknown
11:35 AM 53.1 °F - 35.2 °F 51% 30.14 in 10.0 mi NNE 3.5 mph - N/A   Overcast
11:55 AM 55.2 °F - 33.8 °F 44% 30.14 in 10.0 mi West 6.9 mph - N/A   Overcast
12:15 PM 54.9 °F - 33.1 °F 44% 30.13 in 10.0 mi WNW 9.2 mph - N/A   Overcast
12:35 PM 56.7 °F - 32.5 °F 40% 30.13 in 10.0 mi WNW 6.9 mph - N/A   Overcast
12:55 PM 55.8 °F - 32.9 °F 42% 30.13 in 10.0 mi NNW 6.9 mph - N/A   Mostly Cloudy
1:15 PM 57.0 °F - 32.4 °F 39% 30.13 in 10.0 mi WNW 10.4 mph - N/A   Mostly Cloudy
1:35 PM 57.6 °F - 32.7 °F 39% 30.13 in 10.0 mi West 6.9 mph - N/A   Scattered Clouds
1:55 PM 57.6 °F - 31.5 °F 37% 30.13 in 10.0 mi West 16.1 mph 23.0 mph N/A Thunderstorm Scattered Clouds
2:15 PM 58.8 °F - 34.5 °F 40% 30.13 in 10.0 mi West 16.1 mph 24.2 mph N/A   Scattered Clouds
2:35 PM 57.7 °F - 35.4 °F 43% 30.14 in 10.0 mi WNW 17.3 mph 21.9 mph N/A   Clear
2:55 PM 56.3 °F - 36.3 °F 47% 30.14 in 10.0 mi WNW 19.6 mph 24.2 mph N/A   Scattered Clouds
3:15 PM 54.7 °F - 38.3 °F 54% 30.15 in 10.0 mi West 17.3 mph 25.3 mph N/A   Clear
3:35 PM 54.5 °F - 39.2 °F 56% 30.15 in 10.0 mi West 15.0 mph - N/A   Mostly Cloudy
3:55 PM 57.4 °F - 37.6 °F 48% 30.15 in 10.0 mi West 19.6 mph 25.3 mph N/A   Mostly Cloudy
4:15 PM 54.0 °F - 37.4 °F 54% 30.16 in 10.0 mi West 12.7 mph 25.3 mph N/A   Scattered Clouds
4:35 PM 52.3 °F - 36.0 °F 54% 30.17 in 10.0 mi West 12.7 mph - N/A   Scattered Clouds
4:55 PM 51.8 °F - 36.5 °F 56% 30.17 in 10.0 mi West 24.2 mph 32.2 mph N/A   Scattered Clouds
5:15 PM 49.8 °F - 36.7 °F 61% 30.19 in 10.0 mi West 17.3 mph 28.8 mph N/A   Scattered Clouds
5:35 PM 48.9 °F - 37.9 °F 66% 30.19 in 10.0 mi West 10.4 mph - N/A   Overcast
5:55 PM 49.5 °F - 37.8 °F 64% 30.19 in 10.0 mi West 3.5 mph - N/A   Mostly Cloudy
6:15 PM 49.5 °F - 37.4 °F 63% 30.19 in 10.0 mi West 4.6 mph - N/A   Mostly Cloudy
6:35 PM 49.1 °F - 37.8 °F 65% 30.19 in 10.0 mi WNW 5.8 mph - N/A   Mostly Cloudy
6:55 PM 50.4 °F - 37.6 °F 62% 30.19 in 10.0 mi West 5.8 mph - N/A Thunderstorm Mostly Cloudy
7:15 PM 50.2 °F - 37.4 °F 62% 30.19 in 10.0 mi WSW 3.5 mph - N/A   Mostly Cloudy
7:35 PM 49.5 °F - 37.6 °F 64% 30.19 in 10.0 mi WNW 3.5 mph - N/A   Scattered Clouds
7:55 PM 49.3 °F - 37.9 °F 65% 30.19 in 10.0 mi WNW 4.6 mph - N/A   Scattered Clouds
8:15 PM 49.1 °F - 38.1 °F 66% 30.19 in 10.0 mi West 4.6 mph - N/A   Scattered Clouds
8:35 PM 48.2 °F - 37.6 °F 67% 30.19 in 10.0 mi West 4.6 mph - N/A   Scattered Clouds
8:55 PM 47.1 °F - 37.4 °F 69% 30.19 in 10.0 mi WSW 4.6 mph - N/A   Scattered Clouds
9:15 PM 47.1 °F - 37.4 °F 69% 30.20 in 10.0 mi WSW 5.8 mph - N/A   Scattered Clouds
9:35 PM 48.7 °F - 34.9 °F 59% 30.20 in 10.0 mi WNW 12.7 mph 19.6 mph N/A   Mostly Cloudy
9:55 PM 48.2 °F - 35.1 °F 60% 30.21 in 10.0 mi West 10.4 mph - N/A   Mostly Cloudy
10:15 PM 47.7 °F - 35.6 °F 63% 30.21 in 10.0 mi West 8.1 mph - N/A   Mostly Cloudy
10:35 PM 47.7 °F - 36.1 °F 64% 30.22 in 10.0 mi West 8.1 mph - N/A   Overcast
10:55 PM 47.7 °F - 36.5 °F 65% 30.22 in 10.0 mi West 8.1 mph - N/A   Overcast
11:15 PM 47.5 °F - 36.5 °F 66% 30.22 in 10.0 mi West 6.9 mph - N/A   Overcast
11:35 PM 46.4 °F 44.3 °F 36.5 °F 68% 30.22 in 10.0 mi WSW 4.6 mph - N/A   Overcast
11:55 PM 45.5 °F 43.2 °F 36.7 °F 71% 30.22 in 10.0 mi WSW 4.6 mph - N/A   Overcast